Vertical_Velocity
-0 -3 -1 -2 12 8 -2 4 0 3 4 -3 1 4 4 6 9 9 6 -4 -6 3 -5 -2 -1 -1 -2 -1 -1 -1 -1 2 1 0 -2 0 -1 -1 -2 -1 -1 -1 -1 -1 -1 -1 -1 -1 -1
-2 -1 -1 6 9 5 -7 -1 -0 -2 2 1 -2 -1 1 7 0 -2 -2 3 0 3 1 -2 -1 -0 0 -2 -2 -1 0 -1 2 1 0 -1 -1 -1 -0 -1 -1 -1 -0 -0 1 -0 -1 -1 -1
-3 -3 11 2 1 -1 -4 0 -1 2 0 1 -0 0 2 4 2 8 -1 -0 3 6 5 0 0 0 1 -0 1 -0 -1 -1 -1 -0 0 0 -0 -1 0 0 0 -0 -0 -1 -1 -1 -1 -1 -1
-2 1 -1 9 -4 -13 0 -0 -0 2 1 -0 1 1 -4 8 -1 0 -2 -2 2 11 -3 -1 0 0 4 -1 -0 -1 -0 -1 -1 -1 0 -0 -1 -1 -1 -0 1 1 -0 -0 -1 -1 -1 -2 -2
0 8 5 4 -7 -4 1 2 -3 0 -0 -0 -2 3 3 -2 -5 -0 2 -5 5 5 1 0 -1 -2 1 -0 -1 -1 -2 -0 -2 -0 1 -0 -0 -1 -1 -0 -1 -1 -1 -0 -0 -0 0 -1 -1
9 2 7 -0 -4 -1 0 -3 -0 0 -0 3 1 -1 4 -2 4 6 6 1 4 -0 -1 -0 0 0 0 -1 -2 -1 -1 -1 -0 -0 1 0 -1 -0 -1 -1 -1 -0 -1 -1 -1 -1 -1 -0 1
8 4 -7 -3 -5 5 -5 -1 -0 -2 -0 0 0 -1 4 5 -4 8 2 -2 -1 -1 0 -1 -0 -1 -1 -2 0 -1 -1 -1 -1 -1 -1 -0 -1 -1 -0 -1 -1 -1 -0 0 0 -1 -0 -1 0
7 6 5 -3 -4 -3 1 2 0 -0 5 -4 3 -1 0 5 -7 -3 3 -2 1 -2 -1 -1 1 -1 -0 -1 -0 1 0 -0 -1 -1 -0 0 -1 1 -1 0 -0 -1 -1 -1 -1 -1 -1 -1 0
-4 11 -0 -7 3 -6 1 1 3 -4 -4 0 -1 8 9 -5 -1 -0 1 -2 -3 -1 -2 -0 0 0 -0 -1 -1 -1 0 0 0 -1 -0 1 -0 -1 -0 -3 -1 -0 -0 -1 -0 -1 -0 -1 -1
7 5 -9 -7 -3 -3 -2 1 -3 1 3 4 1 -1 -1 -0 -1 -3 -0 -2 -1 -2 -1 -1 -1 -0 -1 -1 -2 -1 -1 -1 0 -1 -0 -0 -2 -2 2 -1 1 -1 -0 -0 -1 -1 -0 -2 -1
-5 -5 -3 2 6 0 -3 4 -3 0 3 -2 -5 -0 -1 -0 1 0 1 2 2 -2 -2 -2 -0 0 -1 -2 0 -2 -1 -2 -0 -3 1 -0 -0 -2 -2 -2 -0 -1 -1 -1 -1 -1 -1 -2 -1
13 1 1 1 -4 0 -1 1 0 2 5 5 6 -3 -0 2 -1 3 0 -1 -2 0 -2 -1 0 -1 -3 3 -3 -2 -2 0 -2 -1 -1 -1 -1 -1 0 -1 -1 -2 -1 -2 -1 -0 0 0 -0
7 0 -0 0 -2 -0 2 -1 -2 4 -2 -4 4 0 2 1 0 2 5 0 -0 -1 -1 1 -2 -0 1 -3 -1 -1 -1 -1 -1 -3 -0 -2 -1 -1 -2 -2 -2 -1 -1 -1 -1 -2 -1 -1 -1
-2 -2 1 1 1 -1 -1 1 1 4 -1 -0 -0 1 1 -0 1 2 0 0 2 -2 0 -1 -0 -0 -2 -1 -1 -1 -1 -1 -1 -1 -2 0 -2 -1 -1 -1 -1 -2 -1 -1 -1 -1 -1 -1 0
-1 0 3 3 1 0 2 7 1 -0 1 0 1 1 2 0 -0 1 5 1 2 0 -1 0 1 -2 -1 -1 -1 -2 -2 -2 -2 -2 -1 -1 -1 -3 -2 -1 -1 -1 -2 -1 -1 0 -0 -1 0
4 4 3 5 1 1 4 -1 5 -0 -0 1 1 1 -1 2 -2 7 2 0 -2 -1 0 1 -1 -2 -0 -1 -1 -1 -3 -2 -0 -1 -2 -1 -1 -2 -1 0 0 -1 -2 -2 -1 -0 0 -1 -2
8 -2 3 7 -0 0 5 0 4 -0 1 1 1 1 -0 1 2 1 -1 -1 1 -0 1 -3 -0 1 -1 -0 -1 -3 -2 1 -1 -1 -2 -2 -2 -2 -1 -1 -1 0 -0 -1 -2 0 -0 -1 -1
-3 4 5 -2 2 3 3 4 2 0 -0 -1 -0 2 -0 1 0 -0 1 -1 -0 -0 -1 -0 1 0 -1 -1 -2 -3 -1 -3 -2 -1 -0 -0 -1 -1 -0 -0 -1 -2 -2 2 0 -1 -2 -0 1
-2 2 -2 5 1 4 -3 0 0 1 1 1 -0 -1 0 -1 1 0 -0 -0 0 -0 -1 -0 1 -1 -1 -1 0 1 -1 -1 -2 -1 -1 -2 -1 -1 -1 -1 0 0 -1 -3 1 1 0 0 -1
1 -1 3 3 0 5 1 -2 1 0 -0 -0 0 1 0 3 -1 1 1 1 -0 0 -1 1 -0 -0 -0 -1 -1 0 -0 -1 -2 -1 -1 -2 0 -0 -0 0 -1 -1 -0 0 -0 -2 -3 2 1
0 -2 1 -7 2 1 2 4 3 2 1 0 -2 -2 -2 -1 -0 1 2 1 -1 2 1 0 -1 -1 -1 -0 -1 -2 -3 -5 -5 -0 1 -1 0 -1 -2 -3 -1 -0 -1 -2 -0 -3 -2 -2 -1
1 1 -1 -0 -0 0 4 -0 3 2 2 1 0 1 1 1 2 1 0 1 1 -0 -0 -1 -0 -0 -1 -2 -2 -1 -1 -1 -0 -2 -1 -1 -1 -0 -0 -1 -2 -1 0 -1 -1 0 -2 -1 -1
3 -0 -2 -1 -1 0 3 0 8 1 4 2 2 0 0 0 0 1 0 -0 -0 -1 -1 0 0 -1 -1 -1 -1 -0 0 -1 -1 -0 -1 -0 -1 -1 -1 -0 0 -1 -2 -0 0 1 -0 -1 -1
-0 1 -0 0 -1 -1 1 3 2 -0 -6 3 2 1 -0 0 1 -0 -1 -1 -1 -0 0 0 -1 -1 -1 -1 0 0 -1 1 1 1 0 0 -1 1 -1 -1 0 1 -1 -3 -5 -3 -0 -2 -0
2 3 -2 -1 -3 -0 0 2 4 2 1 -2 -0 1 0 -0 0 1 2 2 0 -1 -1 -1 0 0 -1 -1 -1 -1 0 1 1 1 0 1 1 0 1 -2 -1 -3 -0 2 1 -2 -1 -2 -2
-0 -1 -1 -1 -1 0 1 -2 6 -0 -0 -1 -0 -1 -1 1 0 -0 -1 -1 0 -0 -0 -0 1 1 1 1 0 -1 -0 -0 0 -0 1 1 -1 -0 1 -0 -0 0 -1 -2 -1 -0 -1 -3 -2
0 3 1 -0 1 3 -1 5 7 2 3 2 1 1 1 2 1 1 1 -0 -0 -1 -0 0 1 1 0 -0 -1 -0 -0 -0 -0 1 0 -1 0 -0 1 1 1 -1 2 2 -1 0 -0 -2 -1
5 3 4 0 -1 0 2 -1 -1 4 2 2 2 1 1 -0 -0 -0 -0 -0 -0 -1 -1 -1 -1 -1 -1 -2 -1 0 1 1 0 -1 -1 1 2 -1 -1 -2 -0 1 -1 0 2 -1 0 -0 -3
3 1 2 4 2 2 1 1 1 -4 -4 -2 0 0 -0 -0 -0 -1 -0 -0 -1 -0 -0 -1 -1 -1 -0 1 0 -1 -0 0 -2 -2 -1 2 1 -0 -1 -1 1 1 -1 0 -1 1 2 1 0
1 0 1 3 2 1 2 -2 0 -1 -3 -2 -0 -0 -0 -0 -0 -0 -1 -1 -1 -1 -1 -1 -0 -1 -1 -1 -1 -0 1 -0 -0 0 2 1 -0 0 0 1 1 1 -0 -1 -0 -1 1 0 1
Height
1519 1521 1522 1523 1524 1512 1507 1504 1503 1509 1511 1514 1514 1515 1516 1524 1526 1540 1542 1543 1545 1548 1547 1548 1548 1549 1549 1549 1549 1550 1551 1551 1551 1550 1550 1550 1550 1549 1548 1548 1547 1546 1545 1544 1543 1542 1541 1540 1539
1518 1521 1524 1521 1520 1514 1507 1496 1510 1507 1513 1517 1520 1520 1520 1531 1534 1538 1542 1545 1547 1549 1548 1549 1549 1550 1551 1551 1551 1551 1551 1551 1551 1551 1551 1551 1551 1550 1550 1549 1548 1546 1546 1545 1544 1542 1542 1541 1540
1517 1521 1522 1516 1513 1510 1505 1500 1505 1515 1518 1518 1521 1523 1525 1534 1537 1540 1543 1546 1549 1549 1548 1550 1551 1551 1552 1552 1552 1553 1553 1552 1552 1552 1552 1552 1551 1551 1550 1549 1548 1547 1546 1545 1544 1543 1542 1540 1540
1518 1522 1520 1513 1508 1502 1500 1502 1508 1518 1520 1520 1520 1524 1532 1536 1538 1540 1544 1547 1549 1550 1549 1551 1551 1552 1553 1553 1554 1554 1554 1554 1553 1553 1552 1552 1551 1551 1550 1549 1548 1547 1546 1545 1544 1543 1542 1540 1539
1517 1516 1513 1513 1504 1499 1504 1506 1512 1515 1517 1520 1522 1526 1532 1536 1537 1540 1545 1547 1550 1549 1550 1551 1552 1553 1554 1554 1554 1555 1555 1554 1554 1553 1552 1552 1551 1550 1549 1548 1548 1547 1546 1545 1544 1542 1541 1540 1538
1512 1509 1508 1510 1503 1496 1506 1512 1513 1513 1518 1522 1523 1526 1534 1537 1539 1541 1545 1545 1548 1549 1550 1552 1553 1554 1555 1555 1555 1555 1555 1554 1554 1553 1552 1551 1550 1549 1547 1547 1546 1545 1544 1543 1542 1541 1540 1539 1537
1505 1503 1501 1499 1497 1499 1506 1512 1512 1514 1519 1523 1523 1525 1534 1537 1537 1540 1540 1544 1546 1548 1551 1552 1553 1554 1555 1555 1555 1555 1555 1554 1554 1553 1552 1550 1548 1547 1546 1545 1544 1542 1541 1540 1538 1537 1536 1536 1535
1506 1502 1498 1491 1494 1499 1504 1511 1512 1515 1518 1524 1525 1525 1532 1534 1534 1538 1540 1543 1546 1549 1551 1553 1554 1555 1555 1555 1555 1555 1554 1553 1552 1552 1550 1549 1547 1545 1544 1542 1540 1539 1538 1536 1535 1534 1532 1531 1531
1505 1497 1497 1490 1490 1498 1506 1511 1515 1517 1520 1524 1526 1527 1528 1530 1534 1538 1541 1543 1547 1549 1551 1553 1554 1554 1554 1554 1555 1554 1553 1552 1551 1549 1548 1547 1545 1543 1542 1539 1538 1536 1534 1533 1531 1529 1528 1527 1526
1502 1496 1490 1487 1489 1496 1507 1509 1514 1517 1520 1524 1527 1529 1530 1530 1534 1537 1541 1543 1547 1549 1551 1552 1553 1554 1554 1554 1554 1553 1552 1550 1549 1548 1546 1545 1543 1541 1539 1537 1535 1533 1531 1529 1527 1525 1524 1523 1522
1500 1493 1487 1495 1496 1499 1506 1510 1514 1513 1518 1519 1524 1528 1530 1533 1535 1538 1542 1544 1546 1548 1550 1551 1552 1553 1553 1553 1552 1551 1551 1549 1547 1546 1545 1543 1541 1539 1537 1534 1532 1529 1527 1525 1523 1521 1520 1519 1517
1496 1493 1492 1500 1503 1504 1507 1510 1514 1513 1518 1519 1523 1526 1530 1534 1536 1539 1541 1544 1545 1547 1549 1551 1551 1552 1552 1551 1551 1550 1549 1548 1546 1544 1542 1541 1538 1537 1535 1532 1530 1527 1525 1522 1520 1518 1516 1514 1513
1493 1498 1501 1503 1507 1507 1509 1511 1512 1514 1518 1520 1524 1527 1530 1534 1537 1541 1542 1543 1545 1547 1549 1550 1550 1551 1551 1550 1550 1549 1547 1546 1544 1542 1540 1538 1536 1534 1531 1529 1526 1524 1521 1519 1517 1514 1512 1511 1509
1492 1499 1502 1505 1508 1510 1510 1514 1516 1518 1519 1522 1525 1527 1531 1534 1537 1540 1541 1543 1545 1547 1549 1549 1550 1550 1550 1549 1548 1547 1546 1545 1543 1540 1538 1536 1533 1530 1528 1525 1523 1520 1519 1516 1513 1511 1509 1507 1506
1494 1501 1502 1505 1508 1510 1511 1516 1514 1518 1520 1522 1525 1528 1531 1535 1538 1540 1541 1543 1545 1546 1547 1548 1548 1549 1548 1548 1547 1546 1545 1543 1541 1538 1536 1533 1530 1527 1525 1521 1519 1517 1515 1512 1510 1509 1507 1505 1504
1493 1496 1501 1506 1508 1511 1512 1511 1517 1519 1520 1522 1526 1529 1532 1535 1538 1540 1540 1542 1544 1545 1546 1546 1547 1547 1547 1546 1545 1544 1542 1541 1538 1536 1533 1531 1528 1525 1522 1518 1516 1513 1511 1509 1508 1507 1505 1503 1501
1490 1495 1492 1508 1508 1508 1511 1504 1517 1520 1521 1523 1526 1529 1533 1536 1538 1539 1539 1540 1542 1543 1544 1545 1545 1545 1545 1544 1543 1542 1540 1538 1536 1533 1531 1528 1525 1522 1519 1517 1514 1512 1510 1508 1507 1506 1505 1502 1500
1491 1487 1487 1498 1508 1508 1507 1509 1517 1520 1522 1523 1526 1529 1532 1534 1536 1537 1537 1538 1540 1541 1542 1543 1543 1543 1543 1542 1541 1539 1537 1535 1534 1532 1529 1526 1523 1520 1517 1515 1513 1511 1510 1510 1508 1506 1504 1502 1499
1483 1485 1487 1497 1510 1506 1505 1506 1516 1520 1522 1524 1526 1528 1530 1532 1535 1536 1536 1536 1537 1538 1539 1540 1540 1540 1540 1540 1539 1538 1537 1535 1532 1530 1527 1524 1521 1518 1516 1514 1513 1511 1511 1510 1508 1506 1504 1502 1499
1488 1491 1494 1510 1512 1511 1506 1506 1513 1520 1520 1522 1525 1527 1529 1531 1533 1534 1534 1534 1534 1536 1536 1537 1538 1538 1538 1538 1537 1536 1534 1533 1530 1527 1524 1522 1519 1516 1514 1512 1511 1511 1510 1509 1507 1506 1503 1502 1500
1493 1489 1498 1500 1513 1512 1510 1509 1514 1520 1522 1523 1525 1527 1528 1530 1531 1532 1533 1532 1532 1533 1533 1535 1536 1536 1536 1536 1535 1534 1532 1529 1527 1525 1522 1520 1517 1514 1512 1510 1509 1509 1508 1507 1505 1504 1503 1501 1500
1502 1508 1499 1506 1509 1516 1514 1514 1507 1513 1518 1521 1524 1526 1528 1529 1530 1529 1529 1529 1529 1530 1532 1533 1534 1534 1534 1534 1533 1532 1530 1528 1526 1523 1520 1517 1515 1512 1510 1508 1507 1507 1506 1505 1504 1503 1502 1500 1499
1511 1511 1506 1508 1519 1514 1515 1522 1504 1512 1516 1518 1522 1526 1528 1529 1528 1528 1528 1528 1528 1530 1531 1531 1532 1532 1532 1531 1531 1529 1528 1525 1523 1520 1518 1515 1513 1511 1509 1507 1505 1504 1503 1503 1503 1502 1501 1499 1498
1514 1511 1512 1514 1527 1526 1521 1523 1513 1510 1506 1515 1522 1525 1526 1528 1528 1528 1527 1528 1529 1530 1530 1530 1530 1530 1530 1529 1528 1527 1525 1523 1520 1519 1516 1514 1512 1510 1507 1505 1504 1502 1501 1500 1500 1500 1499 1498 1497
1513 1507 1534 1527 1536 1515 1548 1534 1507 1511 1512 1515 1520 1524 1526 1527 1528 1528 1529 1529 1529 1529 1529 1529 1528 1529 1528 1527 1526 1524 1522 1520 1517 1515 1514 1512 1510 1509 1507 1504 1502 1500 1499 1498 1497 1496 1496 1495 1494
1516 1517 1514 1515 1517 1507 1537 1514 1507 1514 1519 1521 1522 1524 1525 1527 1528 1528 1528 1528 1528 1528 1527 1527 1526 1526 1526 1525 1523 1521 1519 1516 1513 1512 1510 1509 1507 1506 1505 1503 1500 1499 1497 1496 1494 1493 1492 1491 1490
1516 1515 1518 1516 1523 1511 1503 1506 1515 1517 1519 1520 1522 1524 1525 1527 1528 1528 1527 1527 1526 1526 1525 1524 1524 1523 1522 1521 1519 1516 1514 1512 1510 1508 1506 1505 1504 1503 1501 1499 1498 1496 1495 1493 1492 1491 1490 1489 1488
1518 1519 1517 1519 1523 1511 1503 1502 1499 1515 1515 1518 1520 1523 1525 1525 1526 1526 1525 1525 1525 1524 1523 1522 1521 1520 1519 1517 1515 1513 1510 1508 1506 1504 1503 1502 1500 1499 1497 1496 1494 1493 1492 1490 1489 1488 1487 1486 1486
1520 1516 1517 1512 1511 1505 1498 1497 1503 1512 1511 1515 1519 1522 1523 1524 1525 1525 1525 1524 1524 1523 1522 1521 1519 1517 1516 1513 1511 1509 1507 1505 1502 1500 1499 1497 1495 1494 1493 1492 1490 1489 1488 1488 1486 1485 1484 1483 1482
1521 1513 1509 1510 1512 1514 1512 1505 1506 1505 1509 1514 1518 1520 1521 1523 1523 1523 1523 1523 1523 1521 1520 1518 1516 1513 1511 1509 1507 1504 1502 1500 1499 1497 1495 1493 1491 1489 1488 1487 1486 1485 1485 1484 1483 1482 1481 1480 1479